Seeley, CA

12:00 PM PDT on August 25, 2016 (GMT -0700)
El Centro Naval Air Facility

Weather History for KNJK - February, 2014

Change the Weather History Date:

Wednesday, February 12, 2014

  Actual Average Record
Temperature  
Mean Temperature 65 °F -  
Max Temperature 82 °F 68 °F 86 °F (2016)
Min Temperature 48 °F 46 °F 35 °F (1999)
Growing Degree Days 15 (Base 50)    
Moisture  
Dew Point 27 °F    
Average Humidity 27    
Maximum Humidity 44    
Minimum Humidity 11    
Precipitation  
Precipitation 0.00 in - - ()
Sea Level Pressure  
Sea Level Pressure 30.10 in    
Wind  
Wind Speed 5 mph (WNW)    
Max Wind Speed 9 mph    
Max Gust Speed -    
Visibility 10 miles    
Events      
Averages and records for this station are not official NWS values.
T = Trace of Precipitation, MM = Missing Value Source: NWS Daily Summary

Daily Weather History Graph

Daily Weather History Graph

Search for Another Location

Airport or City:

Trip Planner

Search our weather history database for the weather conditions in past years. The results will help you decide how hot, cold, wet, or windy it might be!

Date:

Astronomy

Feb. 12, 2014 Rise Set
Actual Time 6:28 AM PST 5:25 PM PST
Civil Twilight 6:03 AM PST 5:50 PM PST
Nautical Twilight 5:34 AM PST 6:19 PM PST
Astronomical Twilight 5:05 AM PST 6:48 PM PST
Moon 3:45 PM PST (2/12) 4:45 AM PST (2/12)
Length of Visible Light 11h 47m
Length of Day
10h 56m
Waxing Gibbous, 96% of the Moon is Illuminated
Feb 12
Waxing Gibbous
Feb 14
Full
Feb 22
Last Quarter
Mar 1
New
Mar 8
First Quarter

Hourly Weather History & Observations

Time (PST) Temp. Dew Point Humidity Pressure Visibility Wind Dir Wind Speed Gust Speed Precip Events Conditions
12:56 AM 52.0 °F 26.1 °F 37% 30.12 in 10.0 mi WSW 9.2 mph - N/A   Clear
1:56 AM 48.9 °F 25.0 °F 39% 30.12 in 10.0 mi West 6.9 mph - N/A   Clear
2:56 AM 51.1 °F 26.1 °F 38% 30.12 in 10.0 mi Calm Calm - N/A   Clear
3:56 AM 51.1 °F 27.0 °F 39% 30.12 in 10.0 mi West 4.6 mph - N/A   Clear
4:56 AM 53.1 °F 27.0 °F 37% 30.14 in 10.0 mi West 4.6 mph - N/A   Clear
5:56 AM 51.1 °F 27.0 °F 39% 30.15 in 10.0 mi SW 6.9 mph - N/A   Scattered Clouds
6:56 AM 48.9 °F 28.0 °F 44% 30.16 in 10.0 mi WSW 8.1 mph - N/A   Scattered Clouds
7:56 AM 55.9 °F 28.9 °F 36% 30.18 in 10.0 mi WNW 5.8 mph - N/A   Scattered Clouds
8:56 AM 68.0 °F 30.9 °F 25% 30.17 in 10.0 mi North 3.5 mph - N/A   Scattered Clouds
9:56 AM 73.0 °F 30.9 °F 21% 30.19 in 10.0 mi NNW 6.9 mph - N/A   Scattered Clouds
10:56 AM 77.0 °F 28.0 °F 17% 30.17 in 10.0 mi North 6.9 mph - N/A   Scattered Clouds
11:56 AM 81.0 °F 27.0 °F 14% 30.14 in 10.0 mi ENE 5.8 mph - N/A   Partly Cloudy
12:56 PM 81.0 °F 28.0 °F 14% 30.09 in 10.0 mi Variable 5.8 mph - N/A   Partly Cloudy
1:56 PM 82.0 °F 26.1 °F 13% 30.07 in 10.0 mi SE 5.8 mph - N/A   Partly Cloudy
2:56 PM 82.9 °F 25.0 °F 12% 30.06 in 10.0 mi East 4.6 mph - N/A   Mostly Cloudy
3:56 PM 82.9 °F 21.9 °F 11% 30.05 in 10.0 mi Calm Calm - N/A   Mostly Cloudy
4:56 PM 81.0 °F 27.0 °F 14% 30.05 in 10.0 mi Calm Calm - N/A   Mostly Cloudy
5:56 PM 72.0 °F 28.9 °F 20% 30.04 in 10.0 mi Calm Calm - N/A   Mostly Cloudy
6:56 PM 68.0 °F 28.9 °F 23% 30.06 in 10.0 mi Calm Calm - N/A   Scattered Clouds
7:56 PM 69.1 °F 30.9 °F 24% 30.05 in 10.0 mi Calm Calm - N/A   Scattered Clouds
8:56 PM 60.1 °F 30.9 °F 33% 30.06 in 10.0 mi West 8.1 mph - N/A   Partly Cloudy
9:56 PM 57.9 °F 28.9 °F 33% 30.06 in 10.0 mi West 4.6 mph - N/A   Scattered Clouds
10:56 PM 61.0 °F 23.0 °F 23% 30.06 in 10.0 mi West 6.9 mph - N/A   Scattered Clouds
11:56 PM 55.0 °F 26.1 °F 33% 30.06 in 10.0 mi Calm Calm - N/A   Clear